Location: Mana�l
(15.0115°N, 12.5022°W)
Time: 05:16:01
(UTC+00:00)

ARIANE 5 R/B - Pass Details

Date: 07 June 2020
Orbit: 230 x 32598 km, 4.6° (Epoch: 05 July)

Event Time Altitude Azimuth Distance (km) Brightness Sun altitude
Exits shadow 04:26:11 33° 188° (S) 1,866 3.6 -24.8°
Maximum altitude 04:27:42 36° 162° (SSE) 2,153 4.1 -24.5°
Drops below altitude 10° 12:44:42 10° 101° (ESE) 17,911 9.1 82.1°
Sets 12:59:54 0° 99° (E) 15,551 8.6 81.8°
